[[{"header":{"parameterUnit":"m.s-1","parameterCategory":1,"la1":30.2992,"la2":30.254,"lo1":-89.0895,"lo2":-89.0443,"dy":0.0025,"dx":0.0025,"nx":19,"ny":19,"refTime":"2026-05-18T09:00:00:Z","depth":0,"parameterNumber":2,"parameterNumberName":"U-component_of_WINDS"},"data":[0,0,0,-4.5816,-4.5819,-4.5939,-4.594,-4.6109,-4.611,0,0,0,0,0,0,0,0,0,0,0,-4.579,-4.5792,-4.5816,-4.5819,-4.5939,-4.594,-4.6108,-4.611,0,0,0,0,0,0,0,0,0,0,0,-4.5789,-4.5791,-4.5793,-4.582,-4.5939,-4.594,-4.6108,-4.6012,0,0,0,0,0,0,0,0,0,0,-4.5893,-4.5878,-4.5791,-4.5793,-4.5821,-4.5939,-4.594,-4.6007,-4.6018,-4.6061,0,-4.6102,0,-4.6109,-4.6123,-4.6123,0,0,0,-4.5812,-4.5869,-4.5893,-4.5793,-4.5822,-4.5939,-4.5883,-4.6013,-4.6025,-4.6076,-4.6104,-4.611,-4.6112,-4.6124,-4.6125,-4.64,-4.6402,0,0,-4.5805,-4.5816,-4.5884,-4.5901,-4.5884,-4.5879,-4.5887,-4.602,-4.6052,-4.6105,-4.6114,-4.6115,-4.6125,-4.6127,-4.6399,-4.6401,0,0,0,-4.5791,-4.5812,-4.5833,-4.5895,-4.5915,-4.5883,-4.5892,-4.6046,-4.6052,-4.6116,-4.6117,-4.6126,-4.6129,-4.6397,-4.6399,-4.649,0,0,0,-4.5787,-4.5804,-4.583,-4.5838,-4.5913,-4.5982,-4.5915,-4.6043,-4.6057,-4.6116,-4.6126,-4.613,-4.6395,-4.6398,-4.6483,-4.653,0,0,0,-4.5779,-4.5803,-4.5824,-4.5838,-4.589,-4.598,-4.5993,-4.6045,-4.6059,-4.6124,-4.6131,-4.6394,-4.6398,-4.6478,-4.6521,-4.6606,0,0,0,-4.5773,-4.5901,-4.5825,-4.5969,-4.589,-4.6036,-4.5992,-4.61,-4.6166,-4.6127,-4.6395,-4.6399,-4.6476,-4.6515,-4.66,-4.6678,-4.6712,0,0,-4.5941,-4.5922,-4.6006,-4.5941,-4.6103,-4.6016,-4.6192,-4.6242,-4.6238,-4.6346,-4.6353,-4.6486,-4.652,-4.6604,-4.6902,-4.6929,0,0,0,-4.6062,-4.6123,-4.6163,-4.6228,-4.6271,-4.6312,-4.6334,-4.6354,-4.6445,-4.6296,-4.654,-4.656,-4.6609,-4.6645,-4.6669,-4.671,-4.6417,-4.6417,-4.6416,-4.6312,-4.6303,-4.6441,-4.6446,-4.651,-4.6534,-4.6584,-4.6614,-4.6584,-4.6642,-4.6673,-4.6855,-4.6899,-4.6916,-4.6959,-4.6715,-4.6715,-4.6716,-4.6716,-4.6556,-4.6639,-4.6599,-4.6718,-4.6708,-4.6808,-4.6838,-4.6813,-4.6905,-4.683,-4.6873,-4.6789,-4.6946,-4.6983,-4.6723,-4.6722,-4.6721,-4.672,-4.672,-4.6717,-4.6755,-4.6778,-4.6872,-4.6947,-4.6948,-4.7039,-4.7026,-4.7014,-4.7057,-4.7088,-4.7087,-4.7083,-4.7073,-4.7074,-4.7075,-4.7075,-4.7076,-4.7076,-4.6874,-4.6897,-4.6975,-4.7034,-4.7075,-4.7128,-4.7157,-4.7197,-4.7238,-4.7221,-4.7221,-4.7185,-4.6964,-4.6907,-4.7086,-4.7084,-4.7083,-4.7082,-4.7081,-4.712,-4.7063,-4.7184,-4.7226,-4.7295,-4.7371,-4.7355,-4.7439,-4.747,-4.7516,-4.7473,-4.7312,-4.7291,-4.7272,-4.7225,-4.7475,-4.7475,-4.7475,-4.7475,-4.7255,-4.7244,-4.7366,-4.7434,-4.7499,-4.7498,-4.7636,-4.7661,-4.7677,-4.7696,-4.7659,-4.7597,-4.7579,-4.7568,-4.7544,-4.7499,-4.7813,-4.7814,-4.7814,-4.7405,-4.7401,-4.752,-4.7537,-4.7591,-4.7639,-4.7768,-4.7849,-4.7855,-4.7827,-4.7711,-4.7697,-4.7596,-4.7564,-4.753,-4.7491,-4.741,0,0]},{"header":{"parameterUnit":"m.s-1","parameterCategory":1,"la1":30.2992,"la2":30.254,"lo1":-89.0895,"lo2":-89.0443,"dy":0.0025,"dx":0.0025,"nx":19,"ny":19,"refTime":"2026-05-18T09:00:00:Z","depth":0,"parameterNumber":3,"parameterNumberName":"V-component_of_WINDS"},"data":[0,0,0,2.2867,2.2867,2.2919,2.292,2.2952,2.2953,0,0,0,0,0,0,0,0,0,0,0,2.2833,2.2833,2.2867,2.2868,2.2919,2.292,2.2952,2.2953,0,0,0,0,0,0,0,0,0,0,0,2.2833,2.2833,2.2833,2.2868,2.2919,2.292,2.2952,2.2925,0,0,0,0,0,0,0,0,0,0,2.288,2.2832,2.2833,2.2833,2.2868,2.2919,2.292,2.2924,2.2926,2.2915,0,2.2903,0,2.2928,2.2953,2.2953,0,0,0,2.288,2.2829,2.286,2.2833,2.2868,2.2919,2.29,2.2926,2.2928,2.2919,2.2904,2.2906,2.2929,2.2953,2.2953,2.2853,2.2852,0,0,2.2877,2.2832,2.2858,2.2861,2.2854,2.2898,2.2901,2.2928,2.2907,2.2904,2.2907,2.2929,2.2953,2.2953,2.2854,2.2853,0,0,0,2.2861,2.2829,2.2861,2.2859,2.2871,2.2899,2.2903,2.2906,2.292,2.2908,2.293,2.2953,2.2953,2.2856,2.2854,2.2758,0,0,0,2.286,2.282,2.2858,2.2831,2.287,2.289,2.288,2.2918,2.2923,2.293,2.2953,2.2953,2.2857,2.2855,2.2764,2.272,0,0,0,2.2836,2.2817,2.2819,2.2828,2.285,2.289,2.2907,2.2921,2.2936,2.2953,2.2953,2.2858,2.2855,2.2768,2.2728,2.2681,0,0,0,2.2797,2.2731,2.2817,2.2752,2.2849,2.2832,2.2907,2.2896,2.2899,2.2953,2.2857,2.2854,2.277,2.2733,2.2686,2.2633,2.2607,0,0,2.2688,2.2716,2.2682,2.276,2.2717,2.2828,2.277,2.2814,2.2856,2.2851,2.2849,2.2762,2.2728,2.2682,2.2479,2.2458,0,0,0,2.2632,2.2607,2.2605,2.2608,2.2642,2.2668,2.2727,2.2744,2.2743,2.2845,2.2734,2.2715,2.269,2.2667,2.2649,2.263,2.2842,2.2842,2.2842,2.2411,2.2472,2.2419,2.2485,2.2486,2.2549,2.2555,2.2589,2.2646,2.2619,2.2617,2.2487,2.2459,2.2446,2.2425,2.2595,2.2595,2.2594,2.2594,2.2257,2.2231,2.2313,2.2291,2.2354,2.2335,2.2393,2.2435,2.2426,2.2493,2.2473,2.2541,2.2421,2.2406,2.2588,2.2589,2.259,2.259,2.2591,2.2119,2.2117,2.2141,2.2153,2.2154,2.2223,2.2212,2.2269,2.2323,2.2304,2.2308,2.231,2.2318,2.2302,2.2302,2.2301,2.2301,2.2301,2.23,2.1965,2.1996,2.1981,2.2014,2.2024,2.2045,2.2108,2.2119,2.2146,2.2188,2.2188,2.2248,2.2399,2.2435,2.2294,2.2295,2.2296,2.2296,2.2297,2.1786,2.1837,2.1812,2.1823,2.1867,2.1865,2.194,2.1957,2.1975,2.1967,2.2032,2.2135,2.2166,2.2181,2.2211,2.202,2.202,2.202,2.202,2.1668,2.1692,2.1681,2.1694,2.1714,2.178,2.1749,2.1798,2.1856,2.187,2.1906,2.1952,2.1964,2.1988,2.2007,2.2036,2.1805,2.1805,2.1805,2.1561,2.1589,2.1553,2.1614,2.1653,2.1685,2.1658,2.1668,2.1744,2.1797,2.1882,2.1891,2.1965,2.1987,2.2039,2.2067,2.2122,0,0]}]]